TimeEDT,TemperatureF,Dew PointF,Humidity,Sea Level PressureIn,VisibilityMPH,Wind Direction,Wind SpeedMPH,Gust SpeedMPH,PrecipitationIn,Events,Conditions,WindDirDegrees,DateUTC
12:15 AM,64.4,55.4,73,30.11,10.0,SSE,3.5,-,N/A,,Clear,150,2013-05-15 04:15:00
12:35 AM,62.6,55.4,77,30.11,10.0,Calm,Calm,-,N/A,,Clear,0,2013-05-15 04:35:00
12:55 AM,62.6,55.4,77,30.11,10.0,Calm,Calm,-,N/A,,Clear,0,2013-05-15 04:55:00
1:35 AM,64.4,55.4,73,30.11,10.0,Calm,Calm,-,N/A,,Clear,0,2013-05-15 05:35:00
1:55 AM,62.6,55.4,77,30.11,10.0,Calm,Calm,-,N/A,,Clear,0,2013-05-15 05:55:00
2:35 AM,60.8,53.6,77,30.11,10.0,Calm,Calm,-,N/A,,Clear,0,2013-05-15 06:35:00
2:55 AM,60.8,53.6,77,30.11,10.0,Calm,Calm,-,N/A,,Clear,0,2013-05-15 06:55:00
3:15 AM,60.8,53.6,77,30.11,10.0,Calm,Calm,-,N/A,,Clear,0,2013-05-15 07:15:00
3:35 AM,59.0,53.6,82,30.11,10.0,Calm,Calm,-,N/A,,Clear,0,2013-05-15 07:35:00
3:55 AM,60.8,53.6,77,30.11,10.0,SW,3.5,-,N/A,,Clear,220,2013-05-15 07:55:00
4:15 AM,66.2,51.8,60,30.12,10.0,WSW,4.6,-,N/A,,Clear,240,2013-05-15 08:15:00
4:35 AM,66.2,51.8,60,30.12,10.0,WSW,8.1,-,N/A,,Clear,240,2013-05-15 08:35:00
4:55 AM,68.0,51.8,56,30.12,10.0,WSW,8.1,-,N/A,,Clear,250,2013-05-15 08:55:00
5:15 AM,66.2,51.8,60,30.13,10.0,WSW,6.9,-,N/A,,Clear,240,2013-05-15 09:15:00
5:35 AM,66.2,51.8,60,30.13,10.0,WSW,6.9,-,N/A,,Clear,250,2013-05-15 09:35:00
5:55 AM,66.2,51.8,60,30.13,10.0,WSW,6.9,-,N/A,,Clear,240,2013-05-15 09:55:00
6:15 AM,66.2,51.8,60,30.13,10.0,WSW,3.5,-,N/A,,Clear,240,2013-05-15 10:15:00
6:35 AM,64.4,51.8,64,30.14,10.0,SW,3.5,-,N/A,,Clear,230,2013-05-15 10:35:00
6:55 AM,64.4,51.8,64,30.15,10.0,Calm,Calm,-,N/A,,Clear,0,2013-05-15 10:55:00
7:15 AM,66.2,51.8,60,30.16,10.0,West,3.5,-,N/A,,Clear,260,2013-05-15 11:15:00
7:35 AM,64.4,53.6,68,30.16,10.0,Calm,Calm,-,N/A,,Clear,0,2013-05-15 11:35:00
7:55 AM,68.0,53.6,60,30.17,10.0,West,4.6,-,N/A,,Clear,260,2013-05-15 11:55:00
8:15 AM,69.8,53.6,56,30.17,10.0,WSW,5.8,-,N/A,,Clear,240,2013-05-15 12:15:00
8:35 AM,69.8,53.6,56,30.17,10.0,WSW,8.1,-,N/A,,Clear,250,2013-05-15 12:35:00
8:55 AM,71.6,55.4,57,30.17,10.0,West,5.8,-,N/A,,Clear,260,2013-05-15 12:55:00
9:15 AM,71.6,55.4,57,30.18,10.0,WSW,5.8,-,N/A,,Clear,250,2013-05-15 13:15:00
9:35 AM,71.6,55.4,57,30.18,10.0,WSW,5.8,-,N/A,,Clear,250,2013-05-15 13:35:00
9:55 AM,73.4,55.4,53,30.18,10.0,WSW,4.6,-,N/A,,Clear,250,2013-05-15 13:55:00
10:15 AM,73.4,55.4,53,30.17,10.0,WSW,6.9,-,N/A,,Clear,240,2013-05-15 14:15:00
10:35 AM,73.4,55.4,53,30.17,10.0,SW,8.1,-,N/A,,Clear,230,2013-05-15 14:35:00
10:55 AM,75.2,55.4,50,30.17,10.0,Variable,6.9,-,N/A,,Clear,0,2013-05-15 14:55:00
11:15 AM,75.2,57.2,53,30.17,10.0,WSW,9.2,-,N/A,,Clear,250,2013-05-15 15:15:00
11:35 AM,75.2,57.2,53,30.17,10.0,West,8.1,-,N/A,,Clear,260,2013-05-15 15:35:00
11:55 AM,77.0,57.2,50,30.17,10.0,WNW,6.9,-,N/A,,Clear,290,2013-05-15 15:55:00
12:15 PM,78.8,57.2,47,30.17,10.0,West,6.9,-,N/A,,Clear,270,2013-05-15 16:15:00
12:35 PM,78.8,55.4,44,30.16,10.0,West,10.4,-,N/A,,Clear,270,2013-05-15 16:35:00
12:55 PM,78.8,55.4,44,30.16,10.0,West,9.2,-,N/A,,Clear,270,2013-05-15 16:55:00
1:15 PM,80.6,55.4,42,30.15,10.0,West,6.9,-,N/A,,Clear,280,2013-05-15 17:15:00
1:35 PM,80.6,55.4,42,30.14,10.0,WSW,10.4,-,N/A,,Clear,250,2013-05-15 17:35:00
1:55 PM,80.6,55.4,42,30.13,10.0,SW,9.2,-,N/A,,Clear,230,2013-05-15 17:55:00
2:15 PM,80.6,55.4,42,30.13,10.0,WSW,10.4,-,N/A,,Clear,250,2013-05-15 18:15:00
2:35 PM,80.6,53.6,39,30.12,10.0,WSW,8.1,-,N/A,,Clear,240,2013-05-15 18:35:00
2:55 PM,82.4,55.4,39,30.12,10.0,WSW,10.4,-,N/A,,Clear,250,2013-05-15 18:55:00
3:15 PM,82.4,55.4,39,30.11,10.0,West,6.9,-,N/A,,Clear,260,2013-05-15 19:15:00
3:35 PM,82.4,53.6,37,30.10,10.0,WSW,13.8,-,N/A,,Clear,240,2013-05-15 19:35:00
3:55 PM,82.4,53.6,37,30.09,10.0,WSW,6.9,-,N/A,,Clear,240,2013-05-15 19:55:00
4:15 PM,82.4,53.6,37,30.08,10.0,West,8.1,-,N/A,,Clear,280,2013-05-15 20:15:00
4:35 PM,82.4,53.6,37,30.07,10.0,SW,10.4,-,N/A,,Clear,220,2013-05-15 20:35:00
4:55 PM,82.4,53.6,37,30.07,10.0,SW,9.2,-,N/A,,Clear,230,2013-05-15 20:55:00
5:15 PM,82.4,50.0,32,30.06,10.0,WSW,10.4,-,N/A,,Clear,250,2013-05-15 21:15:00
5:35 PM,82.4,51.8,35,30.05,10.0,WSW,9.2,-,N/A,,Clear,250,2013-05-15 21:35:00
5:55 PM,82.4,51.8,35,30.05,10.0,WSW,11.5,-,N/A,,Clear,240,2013-05-15 21:55:00
6:15 PM,80.6,48.2,32,30.05,10.0,West,10.4,-,N/A,,Clear,260,2013-05-15 22:15:00
6:35 PM,80.6,51.8,37,30.04,10.0,WSW,4.6,-,N/A,,Clear,240,2013-05-15 22:35:00
6:55 PM,80.6,53.6,39,30.04,10.0,WSW,6.9,-,N/A,,Clear,250,2013-05-15 22:55:00
7:15 PM,78.8,53.6,42,30.04,10.0,WSW,5.8,-,N/A,,Clear,250,2013-05-15 23:15:00
7:35 PM,78.8,53.6,42,30.04,10.0,Calm,Calm,-,N/A,,Clear,0,2013-05-15 23:35:00
7:55 PM,77.0,53.6,44,30.04,10.0,Calm,Calm,-,N/A,,Clear,0,2013-05-15 23:55:00
8:15 PM,77.0,53.6,44,30.04,10.0,West,3.5,-,N/A,,Clear,260,2013-05-16 00:15:00
8:35 PM,75.2,53.6,47,30.04,10.0,Calm,Calm,-,N/A,,Clear,0,2013-05-16 00:35:00
8:55 PM,71.6,57.2,60,30.04,10.0,Calm,Calm,-,N/A,,Clear,0,2013-05-16 00:55:00
9:15 PM,68.0,57.2,68,30.05,10.0,Calm,Calm,-,N/A,,Clear,0,2013-05-16 01:15:00
9:35 PM,66.2,57.2,73,30.05,10.0,Calm,Calm,-,N/A,,Clear,0,2013-05-16 01:35:00
9:55 PM,66.2,55.4,68,30.06,10.0,South,4.6,-,N/A,,Clear,170,2013-05-16 01:55:00
10:15 PM,64.4,57.2,77,30.06,10.0,Calm,Calm,-,N/A,,Clear,0,2013-05-16 02:15:00
10:35 PM,64.4,55.4,73,30.07,10.0,South,3.5,-,N/A,,Clear,180,2013-05-16 02:35:00
10:55 PM,62.6,57.2,82,30.07,10.0,Calm,Calm,-,N/A,,Clear,0,2013-05-16 02:55:00
11:15 PM,62.6,55.4,77,30.06,10.0,Calm,Calm,-,N/A,,Clear,0,2013-05-16 03:15:00
11:35 PM,60.8,55.4,82,30.06,10.0,Calm,Calm,-,N/A,,Clear,0,2013-05-16 03:35:00
11:55 PM,60.8,55.4,82,30.06,10.0,Calm,Calm,-,N/A,,Clear,0,2013-05-16 03:55:00